Location: Maccacari
(45.1333°N, 11.1333°E)
Time: 00:57:11
(UTC+00:00)

Vanguard 2 - Pass Details

Date: 23 January 2021
Orbit: 552 x 2938 km, 32.9° (Epoch: 05 March)

Event Time Altitude Azimuth Distance (km) Brightness Sun altitude
Rises 18:31:53 0° 248° (WSW) 2,902 11.7 -24.7°
Reaches altitude 10° 18:34:20 10° 232° (SW) 2,157 10.5 -25.2°
Maximum altitude 18:38:09 22° 181° (S) 1,768 9.4 -25.8°
Enters shadow 18:39:25 21° 163° (SSE) 1,938 9.4 -26.1°
Drops below altitude 10° 18:43:17 10° 132° (SE) 2,991 - -26.7°
Sets 18:47:25 0° 120° (ESE) 4,400 - -27.5°
